UAL1020 KLAX-KSFO

Flight info

Callsign UAL1020
Flight time 0h 51m
Altitude 34000
Route SUMMR2 STOKD SERFR SERFR4
Aircraft B77W/H-SDE1E2E3FGHIJ2J3J4J5M1RWXY/LB1D1

Departure

Time 2026-04-25 03:39
Airport Los Angeles International Airport (KLAX)

Arrival

Time 2026-04-25 04:30
Airport San Francisco International Airport (KSFO)
Time Latitude Longitude Altitude Speed Heading
2026-04-25 03:14 33.94155 -118.40932 125 ft 0 kts 262°
2026-04-25 03:21 33.94155 -118.40930 126 ft 2 kts 262°
2026-04-25 03:21 33.94158 -118.40911 126 ft 2 kts 263°
2026-04-25 03:22 33.94160 -118.40891 126 ft 2 kts 262°
2026-04-25 03:22 33.94162 -118.40872 126 ft 2 kts 263°
2026-04-25 03:22 33.94164 -118.40852 125 ft 2 kts 234°
2026-04-25 03:22 33.94177 -118.40846 125 ft 2 kts 181°
2026-04-25 03:23 33.94179 -118.40845 125 ft 0 kts 173°
2026-04-25 03:25 33.94155 -118.40842 125 ft 7 kts 174°
2026-04-25 03:25 33.94106 -118.40835 128 ft 8 kts 173°
2026-04-25 03:25 33.94051 -118.40827 128 ft 8 kts 173°
2026-04-25 03:26 33.93995 -118.40819 128 ft 9 kts 173°
2026-04-25 03:26 33.93972 -118.40816 126 ft 0 kts 173°
2026-04-25 03:29 33.93961 -118.40815 128 ft 7 kts 173°
2026-04-25 03:29 33.93904 -118.40822 126 ft 9 kts 214°
2026-04-25 03:29 33.93873 -118.40886 127 ft 9 kts 251°
2026-04-25 03:29 33.93862 -118.40967 127 ft 10 kts 262°
2026-04-25 03:30 33.93853 -118.41050 125 ft 10 kts 262°
2026-04-25 03:30 33.93852 -118.41136 129 ft 11 kts 278°
2026-04-25 03:30 33.93912 -118.41171 128 ft 11 kts 358°
2026-04-25 03:30 33.93989 -118.41181 128 ft 11 kts 352°
2026-04-25 03:31 33.94069 -118.41194 125 ft 12 kts 353°
2026-04-25 03:31 33.94150 -118.41204 128 ft 12 kts 354°
2026-04-25 03:31 33.94235 -118.41217 128 ft 13 kts 353°
2026-04-25 03:31 33.94325 -118.41228 128 ft 13 kts 354°
2026-04-25 03:32 33.94418 -118.41242 128 ft 14 kts 351°
2026-04-25 03:32 33.94510 -118.41258 128 ft 14 kts 356°
2026-04-25 03:32 33.94597 -118.41272 128 ft 9 kts 351°
2026-04-25 03:32 33.94657 -118.41283 126 ft 10 kts 352°
2026-04-25 03:33 33.94722 -118.41291 128 ft 10 kts 355°
2026-04-25 03:33 33.94789 -118.41284 125 ft 10 kts 40°
2026-04-25 03:33 33.94802 -118.41202 126 ft 11 kts 82°
2026-04-25 03:33 33.94816 -118.41087 127 ft 20 kts 82°
2026-04-25 03:34 33.94834 -118.40903 128 ft 22 kts 83°
2026-04-25 03:34 33.94852 -118.40718 130 ft 22 kts 83°
2026-04-25 03:34 33.94872 -118.40534 129 ft 22 kts 83°
2026-04-25 03:34 33.94891 -118.40350 126 ft 22 kts 83°
2026-04-25 03:35 33.94909 -118.40174 128 ft 13 kts 82°
2026-04-25 03:35 33.94917 -118.40099 127 ft 14 kts 83°
2026-04-25 03:35 33.94933 -118.39968 126 ft 9 kts 71°
2026-04-25 03:35 33.94942 -118.39947 127 ft 0 kts 55°
2026-04-25 03:36 33.94957 -118.39928 127 ft 13 kts 40°
2026-04-25 03:37 33.95044 -118.39944 126 ft 13 kts 296°
2026-04-25 03:37 33.95039 -118.39998 126 ft 0 kts 258°
2026-04-25 03:38 33.95026 -118.40095 130 ft 47 kts 263°
2026-04-25 03:39 33.94949 -118.40843 127 ft 132 kts 263°
2026-04-25 03:39 33.94804 -118.42187 362 ft 177 kts 263°
2026-04-25 03:39 33.94638 -118.43763 928 ft 200 kts 262°
2026-04-25 03:39 33.94443 -118.45525 1568 ft 218 kts 263°
2026-04-25 03:40 33.94303 -118.47362 2397 ft 230 kts 267°
2026-04-25 03:40 33.94245 -118.49343 3154 ft 241 kts 268°
2026-04-25 03:40 33.94199 -118.51416 3946 ft 254 kts 266°
2026-04-25 03:40 33.94051 -118.53568 4690 ft 260 kts 264°
2026-04-25 03:41 33.93864 -118.55748 5015 ft 261 kts 264°
2026-04-25 03:41 33.93683 -118.57924 5002 ft 262 kts 264°
2026-04-25 03:41 33.93516 -118.60113 5388 ft 262 kts 264°
2026-04-25 03:41 33.93336 -118.62316 6302 ft 262 kts 264°
2026-04-25 03:42 33.93146 -118.64483 7279 ft 259 kts 264°
2026-04-25 03:42 33.92973 -118.66672 8005 ft 267 kts 265°
2026-04-25 03:42 33.92804 -118.68931 8783 ft 273 kts 264°
2026-04-25 03:42 33.92632 -118.71197 9854 ft 270 kts 264°
2026-04-25 03:43 33.92461 -118.73412 10889 ft 262 kts 264°
2026-04-25 03:43 33.92291 -118.75581 11642 ft 259 kts 264°
2026-04-25 03:43 33.92114 -118.77811 12035 ft 279 kts 264°
2026-04-25 03:43 33.91955 -118.79794 12019 ft 306 kts 264°
2026-04-25 03:44 33.91745 -118.82417 12015 ft 318 kts 264°
2026-04-25 03:44 33.91648 -118.85106 12352 ft 341 kts 270°
2026-04-25 03:44 33.91753 -118.87977 13543 ft 344 kts 272°
2026-04-25 03:44 33.91889 -118.90847 14790 ft 343 kts 272°
2026-04-25 03:45 33.92001 -118.93727 15903 ft 346 kts 271°
2026-04-25 03:45 33.92095 -118.96646 16918 ft 352 kts 271°
2026-04-25 03:45 33.92196 -118.99615 17884 ft 355 kts 274°
2026-04-25 03:45 33.92757 -119.02566 18659 ft 369 kts 289°
2026-04-25 03:46 33.93999 -119.05295 19574 ft 375 kts 299°
2026-04-25 03:46 33.95421 -119.07940 20553 ft 378 kts 299°
2026-04-25 03:46 33.96850 -119.10624 21462 ft 382 kts 298°
2026-04-25 03:46 33.98275 -119.13353 22334 ft 387 kts 298°
2026-04-25 03:47 33.99707 -119.16125 23200 ft 392 kts 298°
2026-04-25 03:47 34.01299 -119.18812 23925 ft 402 kts 308°
2026-04-25 03:47 34.03488 -119.20963 24636 ft 409 kts 320°
2026-04-25 03:47 34.05861 -119.22889 25331 ft 413 kts 320°
2026-04-25 03:48 34.08237 -119.24877 26016 ft 417 kts 319°
2026-04-25 03:48 34.10627 -119.26913 26592 ft 424 kts 319°
2026-04-25 03:48 34.13046 -119.28991 27232 ft 428 kts 319°
2026-04-25 03:48 34.15482 -119.31089 27924 ft 432 kts 318°
2026-04-25 03:49 34.17932 -119.33201 28597 ft 435 kts 318°
2026-04-25 03:49 34.20405 -119.35334 29237 ft 439 kts 318°
2026-04-25 03:49 34.22898 -119.37486 29928 ft 441 kts 318°
2026-04-25 03:49 34.25289 -119.39551 30429 ft 444 kts 318°
2026-04-25 03:50 34.27834 -119.41750 30953 ft 445 kts 317°
2026-04-25 03:50 34.30323 -119.43901 31547 ft 444 kts 317°
2026-04-25 03:50 34.32828 -119.46067 32206 ft 442 kts 316°
2026-04-25 03:50 34.35323 -119.48227 32863 ft 440 kts 316°
2026-04-25 03:51 34.37809 -119.50382 33472 ft 439 kts 315°
2026-04-25 03:51 34.40286 -119.52533 33944 ft 440 kts 315°
2026-04-25 03:51 34.44838 -119.57430 33928 ft 440 kts 306°
2026-04-25 03:52 34.49103 -119.62889 33918 ft 448 kts 306°
2026-04-25 03:52 34.53440 -119.68382 33923 ft 455 kts 306°
2026-04-25 03:53 34.57876 -119.73896 33935 ft 458 kts 307°
2026-04-25 03:53 34.62318 -119.79373 33929 ft 455 kts 307°
2026-04-25 03:54 34.66759 -119.84857 33946 ft 454 kts 307°
2026-04-25 03:54 34.71143 -119.90286 33944 ft 453 kts 307°
2026-04-25 03:55 34.75546 -119.95750 33977 ft 451 kts 307°
2026-04-25 03:55 34.79914 -120.01184 33993 ft 447 kts 306°
2026-04-25 03:56 34.84241 -120.06571 33977 ft 447 kts 306°
2026-04-25 03:56 34.88584 -120.11995 33972 ft 448 kts 307°
2026-04-25 03:57 34.92949 -120.17446 34005 ft 449 kts 306°
2026-04-25 03:57 34.97316 -120.22910 33997 ft 451 kts 307°
2026-04-25 03:58 35.01693 -120.28398 34007 ft 451 kts 306°
2026-04-25 03:58 35.06064 -120.33884 34001 ft 451 kts 306°
2026-04-25 03:59 35.10488 -120.39341 34005 ft 454 kts 309°
2026-04-25 03:59 35.15160 -120.44559 34006 ft 456 kts 310°
2026-04-25 04:00 35.19876 -120.49745 33983 ft 455 kts 310°
2026-04-25 04:00 35.24556 -120.54966 34006 ft 455 kts 310°
2026-04-25 04:01 35.29227 -120.60219 33989 ft 456 kts 310°
2026-04-25 04:01 35.33894 -120.65483 33984 ft 456 kts 310°
2026-04-25 04:02 35.38536 -120.70720 33992 ft 456 kts 310°
2026-04-25 04:02 35.43199 -120.75990 33993 ft 455 kts 310°
2026-04-25 04:03 35.47897 -120.81192 33993 ft 457 kts 314°
2026-04-25 04:03 35.53124 -120.85748 34002 ft 461 kts 318°
2026-04-25 04:04 35.58393 -120.90218 34008 ft 460 kts 318°
2026-04-25 04:04 35.63641 -120.94713 33981 ft 459 kts 318°
2026-04-25 04:05 35.68872 -120.99228 33980 ft 459 kts 317°
2026-04-25 04:05 35.74091 -121.03748 33977 ft 459 kts 317°
2026-04-25 04:06 35.79305 -121.08270 33864 ft 455 kts 318°
2026-04-25 04:06 35.81901 -121.10523 33397 ft 456 kts 318°
2026-04-25 04:06 35.84496 -121.12781 32798 ft 459 kts 318°
2026-04-25 04:07 35.87120 -121.15068 32216 ft 462 kts 318°
2026-04-25 04:07 35.89753 -121.17361 31755 ft 463 kts 318°
2026-04-25 04:07 35.92379 -121.19647 31517 ft 460 kts 318°
2026-04-25 04:07 35.94970 -121.21900 31378 ft 453 kts 318°
2026-04-25 04:08 35.97532 -121.24131 31194 ft 449 kts 318°
2026-04-25 04:08 36.00082 -121.26357 30792 ft 450 kts 318°
2026-04-25 04:08 36.02647 -121.28603 30371 ft 453 kts 318°
2026-04-25 04:08 36.05215 -121.30852 30136 ft 451 kts 318°
2026-04-25 04:09 36.10273 -121.35277 30030 ft 442 kts 318°
2026-04-25 04:09 36.15226 -121.39625 29997 ft 443 kts 318°
2026-04-25 04:10 36.20262 -121.44050 29945 ft 434 kts 318°
2026-04-25 04:10 36.22686 -121.46173 29730 ft 420 kts 318°
2026-04-25 04:10 36.25000 -121.48201 29637 ft 405 kts 318°
2026-04-25 04:11 36.29327 -121.51995 28976 ft 364 kts 317°
2026-04-25 04:11 36.31386 -121.53821 28392 ft 364 kts 317°
2026-04-25 04:11 36.33438 -121.55644 27952 ft 361 kts 317°
2026-04-25 04:12 36.35472 -121.57448 27605 ft 356 kts 317°
2026-04-25 04:12 36.37477 -121.59225 27250 ft 352 kts 317°
2026-04-25 04:12 36.39471 -121.60990 26821 ft 351 kts 317°
2026-04-25 04:12 36.41458 -121.62752 26347 ft 350 kts 318°
2026-04-25 04:13 36.43442 -121.64510 25939 ft 349 kts 318°
2026-04-25 04:13 36.45393 -121.66238 25473 ft 341 kts 318°
2026-04-25 04:13 36.47331 -121.67957 24573 ft 345 kts 319°
2026-04-25 04:13 36.49308 -121.69717 23506 ft 354 kts 319°
2026-04-25 04:14 36.51364 -121.71450 22448 ft 359 kts 322°
2026-04-25 04:14 36.53475 -121.73115 21528 ft 359 kts 323°
2026-04-25 04:14 36.55590 -121.74755 20676 ft 357 kts 324°
2026-04-25 04:14 36.57660 -121.76366 19910 ft 354 kts 324°
2026-04-25 04:15 36.59732 -121.77989 19191 ft 351 kts 324°
2026-04-25 04:15 36.61800 -121.79620 18318 ft 353 kts 325°
2026-04-25 04:15 36.63875 -121.81261 17457 ft 351 kts 325°
2026-04-25 04:15 36.65928 -121.82888 16623 ft 348 kts 326°
2026-04-25 04:16 36.67946 -121.84489 16217 ft 337 kts 326°
2026-04-25 04:16 36.69926 -121.86060 16203 ft 343 kts 326°
2026-04-25 04:16 36.71974 -121.87689 16068 ft 354 kts 326°
2026-04-25 04:16 36.74078 -121.89294 15848 ft 354 kts 332°
2026-04-25 04:17 36.76393 -121.90204 15573 ft 349 kts 347°
2026-04-25 04:17 36.78776 -121.90787 15361 ft 349 kts 347°
2026-04-25 04:17 36.81143 -121.91403 15116 ft 347 kts 347°
2026-04-25 04:17 36.83502 -121.92040 14862 ft 347 kts 347°
2026-04-25 04:18 36.85860 -121.92690 14547 ft 347 kts 347°
2026-04-25 04:18 36.88217 -121.93347 14242 ft 347 kts 348°
2026-04-25 04:18 36.90563 -121.94003 13932 ft 344 kts 348°
2026-04-25 04:18 36.92858 -121.94644 13586 ft 340 kts 348°
2026-04-25 04:19 36.95143 -121.95285 13251 ft 337 kts 347°
2026-04-25 04:19 36.97411 -121.96063 12901 ft 334 kts 344°
2026-04-25 04:19 36.99619 -121.96933 12562 ft 332 kts 343°
2026-04-25 04:19 37.01808 -121.97818 12226 ft 329 kts 343°
2026-04-25 04:20 37.03984 -121.98694 11899 ft 328 kts 343°
2026-04-25 04:20 37.06152 -121.99558 11577 ft 326 kts 343°
2026-04-25 04:20 37.08317 -122.00414 11216 ft 326 kts 343°
2026-04-25 04:20 37.09750 -122.00978 10974 ft 326 kts 343°
2026-04-25 04:21 37.11916 -122.01828 10612 ft 327 kts 343°
2026-04-25 04:21 37.14092 -122.02680 10249 ft 327 kts 342°
2026-04-25 04:21 37.16264 -122.03529 9899 ft 327 kts 342°
2026-04-25 04:21 37.18438 -122.04381 9514 ft 328 kts 342°
2026-04-25 04:22 37.20615 -122.05235 9125 ft 328 kts 342°
2026-04-25 04:22 37.22787 -122.06088 8728 ft 326 kts 341°
2026-04-25 04:22 37.24940 -122.06932 8350 ft 323 kts 342°
2026-04-25 04:22 37.27076 -122.07769 7983 ft 320 kts 341°
2026-04-25 04:23 37.29123 -122.08574 7617 ft 317 kts 341°
2026-04-25 04:23 37.31220 -122.09400 7237 ft 315 kts 341°
2026-04-25 04:23 37.33308 -122.10224 6888 ft 312 kts 342°
2026-04-25 04:23 37.35320 -122.11016 6487 ft 294 kts 341°
2026-04-25 04:24 37.37230 -122.11769 6117 ft 285 kts 342°
2026-04-25 04:24 37.39098 -122.12456 6008 ft 276 kts 344°
2026-04-25 04:24 37.40926 -122.13072 6008 ft 272 kts 344°
2026-04-25 04:24 37.42763 -122.13692 5830 ft 275 kts 344°
2026-04-25 04:25 37.44592 -122.14315 5608 ft 271 kts 343°
2026-04-25 04:25 37.46408 -122.14922 5343 ft 268 kts 344°
2026-04-25 04:25 37.48197 -122.15509 5203 ft 260 kts 344°
2026-04-25 04:25 37.49902 -122.16068 5150 ft 245 kts 343°
2026-04-25 04:26 37.51503 -122.16594 5032 ft 230 kts 344°
2026-04-25 04:26 37.52991 -122.17133 4845 ft 215 kts 335°
2026-04-25 04:26 37.54084 -122.18347 4248 ft 215 kts 297°
2026-04-25 04:26 37.54784 -122.20063 3368 ft 226 kts 294°
2026-04-25 04:27 37.55525 -122.21835 2429 ft 229 kts 296°
2026-04-25 04:27 37.56233 -122.23498 2244 ft 203 kts 295°
2026-04-25 04:27 37.56862 -122.24996 1954 ft 184 kts 295°
2026-04-25 04:27 37.57421 -122.26327 1735 ft 159 kts 294°
2026-04-25 04:28 37.57894 -122.27457 1485 ft 135 kts 294°
2026-04-25 04:28 37.58313 -122.28463 1342 ft 126 kts 295°
2026-04-25 04:28 37.58728 -122.29455 1175 ft 130 kts 295°
2026-04-25 04:28 37.59144 -122.30448 1009 ft 129 kts 295°
2026-04-25 04:29 37.59565 -122.31457 826 ft 127 kts 295°
2026-04-25 04:29 37.59962 -122.32445 665 ft 126 kts 295°
2026-04-25 04:29 37.60379 -122.33414 461 ft 128 kts 298°
2026-04-25 04:29 37.60801 -122.34398 302 ft 126 kts 295°
2026-04-25 04:30 37.61204 -122.35364 146 ft 126 kts 296°
2026-04-25 04:30 37.61621 -122.36341 37 ft 124 kts 297°
2026-04-25 04:30 37.61975 -122.37195 20 ft 89 kts 300°
2026-04-25 04:30 37.62179 -122.37682 30 ft 42 kts 298°
2026-04-25 04:31 37.62316 -122.38005 32 ft 20 kts 298°
2026-04-25 04:31 37.62337 -122.38149 29 ft 41 kts 259°
2026-04-25 04:31 37.62240 -122.38277 29 ft 16 kts 198°
2026-04-25 04:31 37.62134 -122.38322 30 ft 6 kts 205°
2026-04-25 04:32 37.62122 -122.38373 28 ft 7 kts 283°
2026-04-25 04:32 37.62142 -122.38439 26 ft 8 kts 292°
2026-04-25 04:32 37.62169 -122.38508 29 ft 9 kts 297°
2026-04-25 04:32 37.62201 -122.38586 28 ft 11 kts 297°
2026-04-25 04:33 37.62239 -122.38679 21 ft 14 kts 297°
2026-04-25 04:33 37.62284 -122.38786 19 ft 15 kts 297°
2026-04-25 04:33 37.62332 -122.38902 22 ft 15 kts 292°
2026-04-25 04:33 37.62325 -122.39033 19 ft 16 kts 254°
2026-04-25 04:34 37.62281 -122.39157 20 ft 16 kts 229°
2026-04-25 04:34 37.62191 -122.39232 19 ft 16 kts 208°
2026-04-25 04:34 37.62102 -122.39282 20 ft 10 kts 188°
2026-04-25 04:34 37.62048 -122.39227 24 ft 11 kts 122°
2026-04-25 04:35 37.62006 -122.39134 19 ft 13 kts 118°
2026-04-25 04:35 37.61942 -122.39046 20 ft 14 kts 144°
2026-04-25 04:35 37.61861 -122.38995 23 ft 14 kts 195°
2026-04-25 04:35 37.61817 -122.39024 24 ft 0 kts 206°